Regional Weather Roundup
Issued by NWS

Home | Current Version | Previous Version | Text Only | Print | Product List | Glossary Off
Versions: 1 2 3 4 5 6 7 8 9 10 11 12 13 14 15 16 17 18 19 20 21 22 23 24 25 26 27 28 29 30 31 32 33 34 35 36 37 38 39 40 41 42 43 44 45 46 47 48 49 50

000
ASUS45 KSLC 031010
RWRUT

UTAH REGIONAL WEATHER ROUNDUP
NATIONAL WEATHER SERVICE SALT LAKE CITY UT
400 AM MDT FRI JUL 03 2015

UTZ001>011-023>025-031100-

NORTHERN UTAH

CITY           SKY/WX    TMP DP  RH WIND       PRES   REMARKS
BRIGHAM CITY   CLEAR     70  45  40 NW3       30.00S
HILL AFB       CLEAR     71  46  40 SE14      30.03S
LOGAN          CLEAR     61  51  70 CALM      30.03S
OGDEN          CLEAR     74  46  36 SW5       30.01R
PROVO AIRPORT  PTCLDY    66  41  39 CALM      30.04F
SALT LAKE CITY PTCLDY    78  48  34 SE8       29.98F
VERNAL         CLEAR     70  44  39 NW9       30.08S
WENDOVER       PTCLDY    79  45  29 N5        30.01F
HEBER CITY     PTCLDY    54  45  71 CALM      30.15R
WEST JORDAN    CLEAR     73  43  33 SW7       30.03F

$$

UTZ012>022-026-027-031100-

SOUTHERN/CENTRAL UTAH

CITY           SKY/WX    TMP DP  RH WIND       PRES   REMARKS
BLANDING       MOCLDY    62  56  80 NW6       30.23F
BRYCE CANYON   PTCLDY    58  48  69 W5        30.29S
CEDAR CITY     PTCLDY    64  49  57 E6        30.13S
DELTA          CLEAR     72  45  38 MISG      30.05S
HANKSVILLE     PTCLDY    73  41  31 SE3       30.00R
MILFORD        MOCLDY    70  53  54 S6        30.07S
MOAB/CYNLANDS  CLEAR     80  52  37 SE15      29.97R
PRICE          PTCLDY    70  31  23 N10       30.09F
ST GEORGE      MOSUNNY   81  54  39 SE7       29.93S
KANAB          PTCLDY    66  55  68 NW3       30.14S

$$

REGIONAL REPORTS     COLORADO/ARIZONA

CITY           SKY/WX    TMP DP  RH WIND       PRES   REMARKS
CRAIG, CO      MOCLDY    62  46  55 SE6       30.19R
GRAND JUNCTION MOCLDY    76  48  37 E12       30.02S
RIFLE          PTCLDY    65  43  44 SW3       30.10S
MONTROSE       PTCLDY    68  49  50 CALM      30.14R
CORTEZ         CLEAR     62  53  72 CALM      30.16F
PAGE, AZ       MOCLDY    81  51  35 NW3       29.99R
GRAND CANYON     N/A    N/A N/A N/A MISG      30.22S
KINGMAN        PTCLDY    76  50  40 CALM      29.97S
FLAGSTAFF      MOCLDY    66  45  46 SW3       30.25S

$$

REGIONAL REPORTS    NEVADA/IDAHO/WYOMING

CITY           SKY/WX    TMP DP  RH WIND       PRES   REMARKS
LAS VEGAS, NV  PTCLDY    91  51  25 S15       29.81R
ELY            MOCLDY    64  52  64 S3        30.21S
ELKO           PTCLDY    66  50  56 CALM      30.12F
POCATELLO, ID  CLEAR     61  43  51 SW7       30.02R
BURLEY         CLEAR     65  48  54 SW8       29.97S
EVANSTON, WY   PTCLDY    62  41  46 E6        30.26R
ROCK SPRINGS   CLEAR     58  50  75 E8        30.24F
KEMMERER       CLEAR     57  45  62 N12       30.28S

$$



USA.gov is the U.S. government's official web portal to all federal, state and local government web resources and services.